Weather History for Thedford, NE

Change the Weather History Date:

Monday, May 5, 2014

  Actual Average (KLBF) Record (KLBF)
Temperature  
Mean Temperature 56 °F 54 °F  
Max Temperature 74 °F 69 °F 95 °F (2004)
Min Temperature 39 °F 40 °F 22 °F (2013)
Degree Days  
Heating Degree Days 8 11  
Month to date heating degree days 58  
Since 1 July heating degree days 6448  
Cooling Degree Days 0 0  
Month to date cooling degree days 0  
Year to date cooling degree days 3  
Growing Degree Days 6 (Base 50)    
Moisture  
Dew Point 41 °F    
Average Humidity 54    
Maximum Humidity 90    
Minimum Humidity 29    
Precipitation  
Precipitation 0.00 in 0.09 in 1.03 in (1950)
Month to date precipitation 0.46  
Year to date precipitation 4.62  
Snow  
Snow 0.00 in 0.00 in 6.00 in (1950)
Month to date snowfall 0.0  
Since 1 July snowfall 28.5  
Snow Depth -    
Sea Level Pressure  
Sea Level Pressure 29.85 in    
Wind  
Wind Speed 6 mph (ESE)    
Max Wind Speed 15 mph    
Max Gust Speed 22 mph    
Visibility 10 miles    
Events      
T = Trace of Precipitation, MM = Missing Value Source: NWS Daily Summary

Daily Weather History Graph

Daily Weather History Graph

Search for Another Location

Airport:

Trip Planner

Search our weather history database for the weather conditions in past years. The results will help you decide how hot, cold, wet, or windy it might be!

Date:

Astronomy

May. 05, 2014 Rise Set
Actual Time 6:33 AM CDT 8:45 PM CDT
Civil Twilight 6:02 AM CDT 9:16 PM CDT
Nautical Twilight 5:24 AM CDT 9:54 PM CDT
Astronomical Twilight 4:42 AM CDT 10:36 PM CDT
Moon 11:54 AM CDT (5/5) 1:30 AM CDT (5/5)
Length of Visible Light 15h 14m
Length of Day
14h 12m
Waxing Crescent, 37% of the Moon is Illuminated
May 5
Waxing Crescent
May 6
First Quarter
May 14
Full
May 21
Last Quarter
May 28
New

Hourly Weather History & Observations

Time (CDT) Temp. Windchill Dew Point Humidity Pressure Visibility Wind Dir Wind Speed Gust Speed Precip Events Conditions
12:15 AM 50.4 °F - 41.0 °F 70% 29.87 in 10.0 mi East 4.6 mph - N/A   Clear
12:35 AM 51.4 °F - 41.0 °F 68% 29.89 in 10.0 mi East 4.6 mph - N/A   Clear
12:55 AM 51.8 °F - 41.0 °F 67% 29.86 in 10.0 mi ESE 8.1 mph - N/A   Clear
1:15 AM 52.7 °F - 40.5 °F 63% 29.86 in 10.0 mi ESE 5.8 mph - N/A   Clear
1:35 AM 51.8 °F - 40.3 °F 65% 29.86 in 10.0 mi SE 3.5 mph - N/A   Clear
2:15 AM 51.4 °F - 40.1 °F 65% 29.86 in 10.0 mi SSE 5.8 mph - N/A   Clear
2:35 AM 49.8 °F - 40.1 °F 69% 29.86 in 10.0 mi SSE 6.9 mph - N/A   Clear
2:55 AM 50.0 °F - 39.6 °F 67% 29.87 in 10.0 mi Calm Calm - N/A   Clear
3:15 AM 47.8 °F - 39.2 °F 72% 29.87 in 10.0 mi East 4.6 mph - N/A   Clear
3:35 AM 46.8 °F - 39.2 °F 75% 29.86 in 10.0 mi East 4.6 mph - N/A   Clear
3:55 AM 46.4 °F 45.2 °F 38.8 °F 75% 29.86 in 10.0 mi East 3.5 mph - N/A   Clear
4:15 AM 45.1 °F 42.8 °F 38.3 °F 77% 29.85 in 10.0 mi East 4.6 mph - N/A   Clear
4:35 AM 44.8 °F - 38.1 °F 77% 29.85 in 10.0 mi Calm Calm - N/A   Clear
4:55 AM 44.4 °F - 37.8 °F 77% 29.85 in 10.0 mi Calm Calm - N/A   Clear
5:15 AM 43.9 °F - 38.3 °F 81% 29.86 in 10.0 mi Calm Calm - N/A   Clear
5:35 AM 41.9 °F - 37.4 °F 84% 29.86 in 10.0 mi Calm Calm - N/A   Clear
5:55 AM 40.8 °F - 36.7 °F 85% 29.86 in 10.0 mi Calm Calm - N/A   Clear
6:15 AM 41.0 °F 39.0 °F 37.4 °F 87% 29.87 in 10.0 mi NNW 3.5 mph - N/A   Clear
6:35 AM 39.4 °F - 36.7 °F 90% 29.89 in 7.0 mi Calm Calm - N/A   Clear
6:55 AM 40.1 °F - 37.2 °F 89% 29.89 in 10.0 mi Calm Calm - N/A   Clear
7:15 AM 41.4 °F - 38.3 °F 89% 29.89 in 10.0 mi Calm Calm - N/A   Clear
7:35 AM 43.5 °F - 39.6 °F 86% 29.91 in 10.0 mi Calm Calm - N/A   Clear
7:55 AM 44.8 °F - 40.1 °F 84% 29.91 in 10.0 mi Calm Calm - N/A   Clear
8:15 AM 45.9 °F - 40.5 °F 81% 29.91 in 10.0 mi Calm Calm - N/A   Clear
8:35 AM 49.1 °F - 41.2 °F 74% 29.91 in 10.0 mi Calm Calm - N/A   Clear
8:55 AM 50.9 °F - 41.5 °F 70% 29.91 in 10.0 mi Calm Calm - N/A   Clear
9:15 AM 52.3 °F - 41.7 °F 67% 29.92 in 10.0 mi Calm Calm - N/A   Clear
9:35 AM 54.5 °F - 42.4 °F 64% 29.91 in 10.0 mi Calm Calm - N/A   Clear
9:55 AM 57.0 °F - 42.6 °F 59% 29.91 in 10.0 mi NE 4.6 mph - N/A   Clear
10:15 AM 59.0 °F - 42.8 °F 55% 29.91 in 10.0 mi ENE 5.8 mph - N/A   Clear
10:35 AM 61.7 °F - 43.2 °F 51% 29.91 in 10.0 mi ENE 4.6 mph - N/A   Clear
10:55 AM 64.0 °F - 43.0 °F 46% 29.90 in 10.0 mi ENE 9.2 mph - N/A   Clear
11:15 AM 65.7 °F - 42.1 °F 42% 29.90 in 10.0 mi ENE 9.2 mph 17.3 mph N/A   Clear
11:35 AM 66.0 °F - 41.2 °F 40% 29.91 in 10.0 mi ENE 10.4 mph - N/A   Clear
11:55 AM 66.4 °F - 41.4 °F 40% 29.90 in 10.0 mi East 11.5 mph 16.1 mph N/A   Clear
12:15 PM 67.5 °F - 40.6 °F 38% 29.90 in 10.0 mi East 10.4 mph 16.1 mph N/A   Clear
12:35 PM 68.4 °F - 40.5 °F 36% 29.90 in 10.0 mi East 10.4 mph 17.3 mph N/A   Clear
1:36 PM 71.6 °F - 41.0 °F 33% 29.88 in 10.0 mi East 10.4 mph 16.1 mph N/A   Clear
1:55 PM 71.2 °F - 39.7 °F 32% 29.87 in 10.0 mi ESE 9.2 mph - N/A   Clear
2:15 PM 71.6 °F - 39.7 °F 31% 29.86 in 10.0 mi ESE 12.7 mph 19.6 mph N/A   Clear
2:35 PM 73.0 °F - 40.3 °F 31% 29.86 in 10.0 mi East 13.8 mph 21.9 mph N/A   Clear
2:55 PM 74.3 °F - 40.1 °F 29% 29.85 in 10.0 mi SE 10.4 mph 17.3 mph N/A   Clear
3:15 PM 74.3 °F - 39.9 °F 29% 29.85 in 10.0 mi ESE 10.4 mph 16.1 mph N/A   Clear
3:35 PM 72.9 °F - 39.2 °F 30% 29.83 in 10.0 mi SE 11.5 mph 18.4 mph N/A   Clear
3:55 PM 73.8 °F - 39.6 °F 29% 29.83 in 10.0 mi East 11.5 mph 18.4 mph N/A   Clear
4:15 PM 73.9 °F - 40.1 °F 29% 29.81 in 10.0 mi ESE 11.5 mph - N/A   Clear
4:35 PM 74.3 °F - 40.1 °F 29% 29.80 in 10.0 mi East 13.8 mph 17.3 mph N/A   Clear
4:55 PM 73.4 °F - 39.9 °F 30% 29.80 in 10.0 mi SE 15.0 mph 20.7 mph N/A   Clear
5:15 PM 72.9 °F - 40.8 °F 31% 29.80 in 10.0 mi ESE 12.7 mph 19.6 mph N/A   Clear
5:35 PM 73.0 °F - 40.8 °F 31% 29.79 in 10.0 mi ESE 11.5 mph 20.7 mph N/A   Clear
5:55 PM 72.9 °F - 41.0 °F 32% 29.79 in 10.0 mi ESE 13.8 mph - N/A   Clear
6:15 PM 72.9 °F - 41.0 °F 32% 29.79 in 10.0 mi SE 13.8 mph - N/A   Clear
6:35 PM 71.6 °F - 40.8 °F 33% 29.79 in 10.0 mi SE 13.8 mph 18.4 mph N/A   Clear
6:55 PM 70.7 °F - 41.4 °F 35% 29.79 in 10.0 mi SE 11.5 mph 19.6 mph N/A   Clear
7:15 PM 70.0 °F - 41.0 °F 35% 29.79 in 10.0 mi ESE 12.7 mph 18.4 mph N/A   Clear
7:35 PM 69.4 °F - 41.0 °F 36% 29.79 in 10.0 mi SE 12.7 mph - N/A   Clear
7:55 PM 67.8 °F - 41.9 °F 39% 29.79 in 10.0 mi ESE 10.4 mph - N/A   Clear
8:15 PM 67.1 °F - 41.9 °F 40% 29.79 in 10.0 mi SE 11.5 mph - N/A   Clear
8:35 PM 66.2 °F - 41.9 °F 41% 29.79 in 10.0 mi SE 12.7 mph - N/A   Clear
8:55 PM 64.4 °F - 41.9 °F 44% 29.79 in 10.0 mi SE 9.2 mph - N/A   Clear
9:15 PM 63.3 °F - 42.1 °F 46% 29.79 in 10.0 mi SE 9.2 mph - N/A   Clear
9:35 PM 62.4 °F - 42.3 °F 48% 29.78 in 10.0 mi SE 10.4 mph - N/A   Clear
9:55 PM 61.7 °F - 42.3 °F 49% 29.78 in 10.0 mi SE 10.4 mph - N/A   Clear
10:15 PM 60.8 °F - 42.4 °F 51% 29.78 in 10.0 mi SE 10.4 mph - N/A   Clear
10:35 PM 59.7 °F - 42.4 °F 53% 29.78 in 10.0 mi SE 8.1 mph - N/A   Clear
10:55 PM 59.0 °F - 42.4 °F 54% 29.78 in 10.0 mi SE 8.1 mph - N/A   Clear
11:15 PM 58.1 °F - 42.3 °F 56% 29.77 in 10.0 mi SE 5.8 mph - N/A   Clear
11:35 PM 57.2 °F - 42.1 °F 57% 29.77 in 10.0 mi SE 8.1 mph - N/A   Clear